Погода в Миньковцах

Украина / Хмельницкая область     50°19′04″N   26°59′52″E
темп.,
°C
ветер,
м/с
пор.,
м/с
влажн.,
%
обл.,
%
осадки,
мм/ч
давл.,
гПа
погр.,
м
3 августа, вт
вт300:00+14зюз369389 0.0 1013137
03:00+13з36963 0.0 1014130
06:00+13зюз24965 0.0 101471
09:00+18з35725 0.0 1015534
12:00+22зсз455622 0.2 10161558
15:00+23з344927 1.1 10151845
18:00+22з235694 0.0 1015712
21:00+18с256498 0.0 1016139
4 августа, ср
ср400:00+15в12675 0.0 101711
03:00+14вюв227213 0.0 101711
06:00+14юв2374100 0.0 101753
09:00+19юв3464100 0.0 1017333
12:00+24ююв465195 0.0 10171334
15:00+26ююв4545100 0.0 10152332
18:00+24юв4756100 0.0 1013548
21:00+20ююв337099 0.0 101344
5 августа, чт
чт500:00+17юв357999 0.0 101375
03:00+18ююв4981100 0.0 1012235
06:00+17юз2689100 0.8 1011143
09:00+17юв3593100 1.4 1011152
12:00+24ююв456799 0.0 1009702
15:00+30юз36385 0.0 10072055
18:00+29сз124550 0.0 1004838
21:00+21юз5881100 2.1 1003276
6 августа, пт
пт600:00+19ю4119575 8.4 1003619
03:00+18ююз61493100 8.4 1003539
06:00+16ююз4129431 0.0 1003336
09:00+19юз47795 0.0 1004531
12:00+24зюз46563 0.0 10041064
15:00+25зюз565636 0.2 10041554
18:00+22з56674 0.8 1005915
21:00+18з4882100 0.8 1007411
7 августа, сб
сб700:00+15з3898100 0.0 1008260
03:00+14з2898100 0.0 1009334
06:00+13з279888 0.0 1010202
09:00+17зсз468036 0.0 1011581
12:00+22зсз56560 0.0 10111312
15:00+24зсз464838 0.0 10111957
18:00+24зсз454923 0.0 10121834
21:00+19зсз23716 0.0 101350